Flag for Canada Weather past 2 weeks in Kawartha Lakes, Ontario, Canada

Now
3 °F

Frigid.


Feels Like: -17 °F
Forecast: -5 / 20 °F
Wind: 17 mph from Northwest

Location: Lagoon City

Current Time: Jan 30, 2015 at 12:25:29 PM

Latest Report: Jan 30, 2015 at 11:00 AM


Visibility: N/A

Pressure: 30.23 "Hg

Humidity: 66%

Dew point: -6 °F

Location of Kawartha LakesLocation

Historic Weather in Kawartha Lakes — Graph

°F

Kawartha Lakes temperature yesterday

Maximum temperature yesterday: 27 °F (at 12:00 PM)
Minimum temperature yesterday: 17 °F (at 12:00 AM)
Average temperature yesterday: 24 °F

Past Weeks' High & Low Weather Summary

 TemperatureHumidityPressure
High38 °F (Jan 18, 6:00 AM)100% (Jan 18, 9:00 AM)30.33 "Hg (Jan 18, 9:00 AM)
Low-6 °F (Jan 21, 6:00 AM)25% (Jan 27, 3:00 PM)29.41 "Hg (Jan 24, 4:00 PM)
Average16 °F76%29.97 "Hg
* Reported Jan 15 11:00 AM — Jan 30 11:00 AM, Kawartha Lakes, Weather by CustomWeather, © 2014

Note: Actual official high and low records may vary slightly from our data, if they occured in-between our weather recording intervals... More about our weather records

Advertising

Kawartha Lakes weather history for previous 24 hours

 ConditionsComfort  
Time TempWeatherWind HumidityBarometerVisibility
11:00 AM
Jan 30
3 °FFrigid.17 mph66%30.23 "HgN/A
10:00 AM3 °FFrigid.21 mph74%30.20 "HgN/A
9:00 AM5 °FFrigid.22 mph72%30.17 "HgN/A
8:00 AM7 °FFrigid.15 mph76%30.14 "HgN/A
7:00 AM8 °FFrigid.18 mph78%30.10 "HgN/A
6:00 AM10 °FCold.16 mph80%30.06 "HgN/A
5:00 AM14 °FCold.20 mph79%30.00 "HgN/A
4:00 AM19 °FCold.15 mph83%29.94 "HgN/A
3:00 AM24 °FCold.15 mph86%29.90 "HgN/A
2:00 AM25 °FCold.13 mph88%29.87 "HgN/A
1:00 AM25 °FChilly.13 mph89%29.84 "HgN/A
12:00 AM27 °FChilly.14 mph92%29.80 "HgN/A
11:00 PM
Jan 29
27 °FChilly.13 mph95%29.78 "HgN/A
10:00 PM27 °FChilly.9 mph97%29.76 "HgN/A
9:00 PM25 °FChilly.3 mph98%29.75 "HgN/A
8:00 PM25 °FChilly.6 mph98%29.74 "HgN/A
7:00 PM25 °FChilly.6 mph97%29.73 "HgN/A
6:00 PM26 °FChilly.6 mph97%29.72 "HgN/A
5:00 PM26 °FChilly.3 mph96%29.70 "HgN/A
4:00 PM26 °FChilly.3 mph95%29.71 "HgN/A
3:00 PM26 °FChilly.6 mph94%29.72 "HgN/A
2:00 PM25 °FChilly.10 mph100%29.75 "HgN/A
1:00 PM26 °FChilly.12 mph77%29.78 "HgN/A
12:00 PM27 °FChilly.9 mph60%29.82 "HgN/A
Weather by CustomWeather, © 2014

See weather overviewHow to use our weather pages